Date String (YYYY-MM-DD hh:mm:ss) UTC,Instrument flags,Ambient pressure (hPa),Sample flow (lpm),Bypass flow (lpm),Sample temperature (°C),Ambient temperature (°C),ASC tube jacket temperature (°C),LED temperature (°C),Box temperature (°C),Sample RH (%),Span deviation,Mass concentration (μg/m³),Mass concentration (μg/m³),Mass concentration (μg/m³)
DateTimeUTC,F1_M11,P_M11,Q1_M11,Q2_M11,T1_M11,T2_M11,T3_M11,T4_M11,T5_M11,U1_M11,ZSPAN_M11,X0_M11,X2_M11,X1_M11
2022-07-13 02:00:00,,0827.9,5.00,0.00,29.4,27.8,00.0,38.1,31.3,19.6,0000.0,0011.40,0004.46,0003.73
2022-07-13 02:01:00,,0827.9,5.00,0.00,29.5,28.0,00.0,38.1,31.4,19.5,0000.0,0010.84,0004.49,0003.74
2022-07-13 02:02:00,,0827.9,5.00,0.00,29.5,28.1,00.0,38.2,31.4,19.2,0000.0,0010.45,0004.50,0003.74
2022-07-13 02:03:00,,0827.9,5.01,0.00,29.5,28.3,00.0,38.2,31.5,19.2,0000.0,0010.04,0004.49,0003.75
2022-07-13 02:04:00,,0827.9,5.00,0.00,29.5,28.4,00.0,38.2,31.6,18.9,0000.0,0010.14,0004.49,0003.76
2022-07-13 02:05:00,,0827.9,5.00,0.00,29.6,28.6,00.0,38.2,31.6,18.8,0000.0,0010.97,0004.49,0003.77
2022-07-13 02:06:00,,0827.9,5.00,0.00,29.6,28.2,00.0,38.2,31.6,18.8,0000.0,0012.33,0004.48,0003.78
2022-07-13 02:07:00,,0827.8,5.00,0.00,29.6,27.4,00.0,38.1,31.4,18.8,0000.0,0012.54,0004.48,0003.80
2022-07-13 02:08:00,,0827.8,5.01,0.00,29.5,27.0,00.0,38.1,31.3,18.8,0000.0,0012.95,0004.51,0003.83
2022-07-13 02:09:00,,0827.8,4.99,0.00,29.4,27.0,00.0,38.1,31.2,18.7,0000.0,0012.79,0004.57,0003.86
2022-07-13 02:10:00,,0827.7,4.99,0.00,29.4,27.2,00.0,38.1,31.2,18.7,0000.0,0012.79,0004.63,0003.89
2022-07-13 02:11:00,,0827.7,5.00,0.00,29.4,27.4,00.0,38.1,31.2,18.6,0000.0,0013.72,0004.68,0003.91
2022-07-13 02:12:00,,0827.7,4.99,0.00,29.4,27.6,00.0,38.1,31.3,18.5,0000.0,0014.90,0004.65,0003.93
2022-07-13 02:13:00,,0827.7,5.01,0.00,29.4,27.8,00.0,38.1,31.3,18.3,0000.0,0014.66,0004.60,0003.93
2022-07-13 02:14:00,,0827.7,5.00,0.00,29.4,27.9,00.0,38.1,31.4,18.3,0000.0,0014.39,0004.59,0003.95
2022-07-13 02:15:00,,0827.7,5.00,0.00,29.4,28.1,00.0,38.1,31.4,18.4,0000.0,0014.19,0004.62,0003.97
2022-07-13 02:16:00,,0827.7,5.01,0.00,29.5,28.3,00.0,38.2,31.5,18.6,0000.0,0013.36,0004.65,0003.98
2022-07-13 02:17:00,,0827.7,5.01,0.00,29.5,28.4,00.0,38.2,31.5,18.3,0000.0,0012.02,0004.64,0004.00
2022-07-13 02:18:00,,0827.7,5.01,0.00,29.6,28.5,00.0,38.2,31.6,18.3,0000.0,0011.63,0004.65,0004.00
2022-07-13 02:19:00,,0827.7,5.00,0.00,29.6,28.6,00.0,38.2,31.6,18.2,0000.0,0011.14,0004.65,0004.01
2022-07-13 02:20:00,,0827.7,4.99,0.00,29.6,28.1,00.0,38.2,31.5,18.3,0000.0,0011.15,0004.62,0004.01
2022-07-13 02:21:00,,0827.7,4.99,0.00,29.5,27.3,00.0,38.1,31.4,18.4,0000.0,0011.14,0004.64,0004.01
2022-07-13 02:22:00,,0827.8,5.00,0.00,29.5,27.1,00.0,38.1,31.3,18.6,0000.0,0010.76,0004.67,0004.02
2022-07-13 02:23:00,,0827.7,5.00,0.00,29.4,27.1,00.0,38.1,31.2,18.9,0000.0,0009.67,0004.72,0004.03
2022-07-13 02:24:00,,0827.6,5.00,0.00,29.4,27.2,00.0,38.1,31.2,19.1,0000.0,0009.79,0004.77,0004.05
2022-07-13 02:25:00,,0827.7,4.99,0.00,29.4,27.4,00.0,38.1,31.2,19.1,0000.0,0010.11,0004.80,0004.06
2022-07-13 02:26:00,,0827.6,4.99,0.00,29.4,27.6,00.0,38.1,31.3,18.9,0000.0,0011.03,0004.81,0004.05
2022-07-13 02:27:00,,0827.6,5.01,0.00,29.4,27.8,00.0,38.1,31.3,18.9,0000.0,0010.96,0004.77,0004.04
2022-07-13 02:28:00,,0827.6,5.00,0.00,29.4,28.0,00.0,38.1,31.4,18.9,0000.0,0011.04,0004.77,0004.03
2022-07-13 02:29:00,,0827.6,5.00,0.00,29.4,28.1,00.0,38.1,31.4,18.7,0000.0,0010.98,0004.76,0004.03
2022-07-13 02:30:00,,0827.6,5.01,0.00,29.5,28.3,00.0,38.2,31.5,18.5,0000.0,0010.80,0004.72,0004.02
2022-07-13 02:31:00,,0827.6,4.99,0.00,29.5,28.4,00.0,38.2,31.5,18.1,0000.0,0010.48,0004.70,0004.01
2022-07-13 02:32:00,,0827.6,5.00,0.00,29.6,28.5,00.0,38.2,31.6,18.0,0000.0,0010.63,0004.63,0003.98
2022-07-13 02:33:00,,0827.6,5.01,0.00,29.6,28.6,00.0,38.2,31.6,18.3,0000.0,0010.29,0004.57,0003.97
2022-07-13 02:34:00,,0827.7,4.99,0.00,29.6,28.4,00.0,38.2,31.6,18.2,0000.0,0009.95,0004.47,0003.95
2022-07-13 02:35:00,,0827.6,5.01,0.00,29.6,27.6,00.0,38.2,31.4,18.4,0000.0,0009.72,0004.41,0003.93
2022-07-13 02:36:00,,0827.7,5.00,0.00,29.5,27.1,00.0,38.1,31.3,18.6,0000.0,0009.51,0004.40,0003.93
2022-07-13 02:37:00,,0827.7,4.99,0.00,29.5,27.0,00.0,38.1,31.2,18.5,0000.0,0008.36,0004.37,0003.91
2022-07-13 02:38:00,,0827.7,4.99,0.00,29.4,27.1,00.0,38.1,31.2,18.7,0000.0,0008.43,0004.39,0003.91
2022-07-13 02:39:00,,0827.7,5.00,0.00,29.4,27.3,00.0,38.1,31.2,18.9,0000.0,0007.98,0004.36,0003.91
2022-07-13 02:40:00,,0827.7,4.99,0.00,29.4,27.5,00.0,38.1,31.2,19.0,0000.0,0008.09,0004.34,0003.91
2022-07-13 02:41:00,,0827.7,5.00,0.00,29.4,27.7,00.0,38.1,31.3,18.8,0000.0,0008.65,0004.35,0003.91
2022-07-13 02:42:00,,0827.7,5.00,0.00,29.4,27.9,00.0,38.1,31.3,19.0,0000.0,0008.98,0004.36,0003.91
2022-07-13 02:43:00,,0827.8,5.01,0.00,29.4,28.0,00.0,38.1,31.4,19.0,0000.0,0009.10,0004.40,0003.92
2022-07-13 02:44:00,,0827.7,5.00,0.00,29.5,28.2,00.0,38.2,31.4,19.1,0000.0,0008.84,0004.39,0003.93
2022-07-13 02:45:00,,0827.8,5.00,0.00,29.5,28.3,00.0,38.2,31.5,19.0,0000.0,0008.92,0004.40,0003.94
2022-07-13 02:46:00,,0827.8,5.01,0.00,29.5,28.4,00.0,38.2,31.5,18.7,0000.0,0008.99,0004.41,0003.95
2022-07-13 02:47:00,,0827.8,5.00,0.00,29.6,28.6,00.0,38.2,31.6,18.7,0000.0,0008.95,0004.39,0003.95
2022-07-13 02:48:00,,0827.9,5.00,0.00,29.6,28.7,00.0,38.2,31.6,18.6,0000.0,0008.97,0004.37,0003.95
2022-07-13 02:49:00,,0827.9,4.99,0.00,29.7,28.7,00.0,38.3,31.7,18.5,0000.0,0009.05,0004.39,0003.96
2022-07-13 02:50:00,,0827.9,5.00,0.00,29.7,28.1,00.0,38.2,31.6,18.3,0000.0,0008.93,0004.41,0003.97
2022-07-13 02:51:00,,0827.9,5.00,0.00,29.6,27.7,00.0,38.2,31.5,18.5,0000.0,0009.15,0004.45,0003.98
2022-07-13 02:52:00,,0827.9,5.00,0.00,29.6,27.6,00.0,38.2,31.4,18.7,0000.0,0008.94,0004.45,0003.99
2022-07-13 02:53:00,,0827.9,5.00,0.00,29.5,27.7,00.0,38.2,31.3,18.6,0000.0,0009.15,0004.44,0003.99
2022-07-13 02:54:00,,0827.9,4.98,0.00,29.5,27.8,00.0,38.2,31.4,18.8,0000.0,0008.76,0004.43,0003.99
2022-07-13 02:55:00,,0827.8,5.00,0.00,29.5,27.9,00.0,38.2,31.4,18.8,0000.0,0008.59,0004.42,0003.98
2022-07-13 02:56:00,,0828.1,5.00,0.00,29.5,28.1,00.0,38.3,31.4,18.5,0000.0,0008.50,0004.41,0003.99
2022-07-13 02:57:00,,0828.0,4.99,0.00,29.6,28.2,00.0,38.3,31.5,18.2,0000.0,0008.56,0004.44,0003.99
2022-07-13 02:58:00,,0827.9,5.01,0.00,29.6,28.4,00.0,38.3,31.6,18.1,0000.0,0008.76,0004.48,0004.00
2022-07-13 02:59:00,,0827.9,5.00,0.00,29.6,28.5,00.0,38.3,31.6,18.2,0000.0,0008.73,0004.50,0004.01
